TITAN 3C TRANSTAGE DEB, 13906

Orbit data source: Space-Track

TITAN 3C TRANSTAGE DEB, 13906 is space debris in HEO originally from a launch on Tue, 21 Dec 1965 UTC launched from the Air Force Eastern Test Range (AFETR). Debris objects in space refer to the collection of defunct objects orbiting the Earth. Examples of debris include non-operational satellites, rocket bodies, and fragments generated from explosions, collisions, or faulty payload assembly.

Loading next visibility...
Identifier
13906, 1965-108U
Orbit
HEO
Country
Flag of USUS
Related business
Manufacturer
Unknown
Mission
Spacecraft
Bus & Motor
Unknown
Mass
Unknown
Launch date (UTC)
1965-12-21 (60 years ago)
Launch vehicle
Unknown
Launch site
Air Force Eastern Test Range (AFETR)
Object type
Payload
Rocket body
Debris
Shape & HBR
Unknown shape, 0.5 m
Radar Cross Section
Medium (>0.1 m² and <1 m²)

Expand to show TLE details & history
Last TLE update: 9 hours ago

TLE from 9 hours ago
0 TITAN 3C TRANSTAGE DEB
1 13906U 65108U   26036.86177015  .00000134  00000-0  25197-2 0  9995
2 13906  26.5707 320.7066 6740365 133.9461 345.5687  2.78067753339727
Epoch: 2026-02-05T20:40Z
TLE epoch observation values (Epoch: 2026-02-05T20:40:56.940Z)
Latitude
22.0732°
Longitude
-71.66713°
Altitude
3,751.651 km
Speed
7.75 km/s
True Right ascension
00h 58m 18s
True Declination
21° 59' 21"
Sunlit
Object was in daylight at epoch
Visualization orbit readout
Latitude
Unknown
Longitude
Unknown
Altitude
Unknown
Speed
Unknown
Apparent Right ascension
Unknown
Apparent Declination
Unknown
Sunlit
N/A
Visualization observer readout
Local Sidereal Time
07:43:51
Azimuth
Unknown
Elevation
Unknown
Doppler factor
Unknown
Orbital elements
Apogee altitude
29,388.057 km
Perigee altitude
586.152 km
Semi-major axis
21,365.241 km
Eccentricity
0.67404
Inclination
26.5707°
RAAN
320.7066°
Arg. of periapsis
133.9461°
True anomaly
283.37555°
Mean anomaly
345.5687°
Eccentric anomaly
321.55829°
Mean motion
0.69499 °/min
Orbital period
517.99 mins
BSTAR
0.0025197
Loading maneuver chart data...
Computing Atmospheric mass density...

Documentation

Showing up to 5 results
|